CAPE
0 0 0 0 5 7 3 0 3 4 2 10 1 2 2 0 0 10 0 8 2 2 4 4 3 12 17 16 8 8 12 13 21 20 6 9 10 13 0 2 7 0 5
0 0 0 3 3 0 0 1 1 3 5 6 6 5 1 3 6 3 1 4 5 0 2 0 5 6 6 9 13 16 25 13 16 15 5 11 8 20 20 6 3 0 0
0 0 0 0 0 3 4 1 1 1 4 3 1 2 0 4 6 8 8 9 2 1 1 4 3 11 12 15 9 1 9 13 29 21 15 9 14 16 13 4 12 11 0
0 0 1 0 0 5 0 2 1 6 10 1 1 0 1 1 3 5 3 2 3 4 5 9 1 9 8 7 5 4 3 5 7 32 24 11 10 12 13 14 16 13 10
0 0 1 5 15 3 2 7 10 8 6 2 2 2 1 0 2 1 1 3 3 8 11 10 10 9 5 7 14 15 23 24 12 17 46 19 8 17 19 14 15 18 10
2 2 2 5 7 4 4 6 6 2 2 2 3 0 1 0 0 0 2 1 1 3 1 6 5 6 3 0 0 1 2 5 2 26 18 25 13 16 20 8 19 18 20
2 4 2 5 4 4 4 3 3 1 2 2 3 0 1 0 0 0 1 2 1 0 1 1 1 2 4 6 7 3 2 0 0 1 18 20 20 9 14 24 16 19 18
0 1 1 4 1 1 3 3 3 1 5 5 2 2 0 1 0 0 1 2 1 0 1 1 0 2 2 1 1 3 6 9 16 9 5 8 15 15 7 19 23 22 1
7 2 2 5 1 4 3 3 5 4 4 3 2 0 3 2 1 0 2 2 1 0 1 2 8 3 2 0 1 1 1 0 7 0 1 2 2 2 1 6 16 11 5
3 2 6 6 5 3 6 8 6 3 1 3 2 2 2 3 1 0 2 3 2 0 1 4 0 1 0 0 1 0 0 1 0 2 15 1 0 1 0 2 5 19 9
5 7 5 5 4 6 4 7 4 3 1 1 1 1 1 1 1 0 1 3 2 2 1 2 3 0 0 0 0 1 1 1 0 0 2 5 13 14 7 2 3 4 5
6 1 3 4 5 3 2 1 0 1 0 1 1 0 1 3 0 1 0 2 1 2 1 1 2 0 0 0 0 0 0 0 0 0 2 2 2 3 7 4 2 3 3
1 0 3 2 0 2 2 1 1 0 0 1 0 1 1 2 3 1 1 0 2 1 2 0 0 0 0 1 1 0 0 3 2 0 0 2 2 1 2 2 1 3 2
0 0 1 1 0 1 2 2 3 2 2 2 2 2 2 2 1 3 2 2 2 1 2 4 1 1 2 1 2 2 5 13 2 2 1 2 1 3 2 2 2 1 3
0 0 1 1 0 0 0 1 1 3 1 2 2 2 2 1 2 1 0 1 0 0 0 2 1 0 1 2 2 2 3 3 5 7 4 3 3 3 3 1 0 3 3
0 0 0 0 0 0 0 0 0 0 0 0 0 0 3 0 0 0 0 0 0 0 1 0 1 2 2 1 2 2 1 2 3 2 5 5 6 3 5 4 2 9 1
0 0 0 0 0 0 0 0 0 0 0 0 0 0 0 0 0 0 0 0 0 0 1 2 2 2 3 3 2 2 1 2 5 3 2 3 3 5 5 2 1 2 2
0 0 0 0 0 0 0 0 0 0 1 0 1 0 0 0 0 0 0 0 0 0 0 3 0 0 1 1 2 2 3 2 1 1 2 3 2 2 2 6 2 2 9
0 0 0 0 0 0 0 0 0 0 0 0 0 0 1 0 0 0 0 2 2 0 0 0 0 3 1 0 0 1 0 2 2 1 1 1 1 3 2 2 2 0 0
0 0 0 0 0 0 0 0 0 0 0 0 0 0 0 0 0 1 2 2 1 0 3 0 0 0 1 0 0 0 0 1 0 1 2 1 0 1 2 2 2 2 2
0 0 0 0 0 0 0 0 0 0 0 0 0 0 0 0 1 1 1 2 1 1 4 4 3 3 7 8 8 4 0 0 1 1 0 2 0 2 1 0 0 1 2
0 0 0 0 0 0 0 0 0 0 0 0 0 0 0 0 0 0 0 1 2 4 4 4 3 5 3 5 6 8 5 6 4 1 1 1 1 2 4 2 1 0 0
0 0 0 0 0 0 0 0 0 0 0 0 0 0 0 0 1 1 1 2 1 2 2 5 4 4 4 5 6 5 8 7 6 7 6 2 0 1 1 4 3 2 2
0 0 0 0 0 0 0 0 0 0 0 0 0 0 0 1 0 0 2 2 1 1 1 1 1 2 3 4 7 7 9 4 6 5 6 5 1 0 2 4 5 3 2
0 0 0 0 0 0 0 0 0 0 0 0 0 0 1 2 1 2 3 1 1 1 1 1 5 3 3 2 7 9 5 5 6 4 7 5 4 1 0 4 5 3 3
0 0 0 0 0 0 0 0 0 0 0 0 0 1 1 2 1 1 4 2 2 2 2 3 5 4 6 7 6 3 4 4 5 4 6 5 5 6 3 4 5 6 3
CIN
0 0 0 0 -1 -1 -1 0 -1 -1 -1 0 -1 -1 -1 0 0 0 0 0 0 0 0 -1 0 0 -1 -1 -1 -1 -1 -1 0 -1 -5 -3 -2 -1 -1 0 -1 0 -18
0 0 0 0 0 0 -3 -1 -1 -1 -1 -1 0 0 0 0 0 0 0 0 0 0 -1 -4 -1 0 0 -1 -1 -1 -1 -2 -1 0 -1 -2 -4 -3 -2 -1 -2 0 -1
0 0 0 0 0 -1 0 -1 -1 -1 0 0 0 0 -1 0 0 0 0 0 0 -2 -1 -1 -1 -1 -1 -1 -1 0 -1 -1 -1 -1 -1 -2 -3 -3 -2 -2 -2 -1 0
0 0 -2 -1 0 0 -2 -1 0 0 0 -1 0 -1 -1 -1 0 0 -1 -1 -1 0 0 0 0 -1 -1 -1 -2 -1 -1 -1 -2 0 -1 -1 -2 -3 -1 -1 -1 -3 -1
0 0 -3 -2 0 0 0 0 0 0 0 0 0 0 -1 0 -1 -1 0 0 0 0 0 0 0 0 0 -1 -1 -1 -1 0 -1 -1 0 -2 -1 -2 -1 -2 -2 -1 -3
-1 -2 -1 0 0 0 0 0 0 0 0 0 0 0 0 0 0 0 0 0 0 0 0 0 0 0 0 0 0 -1 0 0 0 0 -1 -1 -2 -2 -4 -1 -1 -1 0
-2 -1 -1 0 0 -1 0 0 0 0 0 0 0 0 0 0 0 0 0 0 0 0 0 0 0 0 0 0 0 0 0 0 0 -1 0 -1 -1 -4 -3 -2 -1 -1 0
-2 -1 0 0 -1 0 0 0 0 0 0 0 0 0 0 0 0 0 0 0 0 0 0 -1 0 0 0 0 0 0 0 -1 -1 0 -1 -2 -2 -2 -2 -3 -1 -1 -2
0 -1 0 0 0 0 -1 0 0 0 0 0 0 0 0 0 -1 0 0 0 0 0 0 0 0 0 0 0 0 0 0 0 -1 0 -5 -5 -4 -7 -1 -4 -1 -1 0
0 -1 0 0 0 0 0 0 0 0 -1 0 -1 0 -1 0 0 0 0 0 0 0 0 0 0 -1 0 0 0 0 0 0 0 0 0 0 0 -1 0 -1 -2 0 0
0 0 0 0 0 0 0 0 0 0 -1 -2 -1 -1 0 0 0 0 0 0 0 0 0 0 -1 -1 -5 -2 0 0 0 0 0 0 0 0 0 0 0 0 0 0 0
0 -1 0 0 0 0 0 0 0 -1 0 -1 -1 -1 0 -1 -1 0 0 0 0 0 0 0 0 0 0 0 0 0 0 0 0 0 0 0 0 0 0 0 0 0 0
-1 -2 -1 0 0 -1 0 -1 0 0 0 0 0 0 0 0 0 0 0 0 0 0 0 0 0 0 0 0 0 0 0 0 0 0 0 0 0 0 0 0 0 0 0
0 0 -1 -1 -1 -1 0 0 0 0 0 0 0 0 0 0 0 0 0 0 0 0 0 0 0 0 0 0 0 0 0 0 0 0 0 0 0 0 0 0 0 0 0
0 -1 -1 0 -2 -1 -1 0 -1 0 -1 0 0 0 0 0 0 0 0 0 0 0 0 -1 0 0 0 0 0 0 0 0 0 0 0 0 0 0 0 -2 -1 -1 0
0 -1 -1 -1 0 0 0 -1 0 0 0 0 0 -1 0 0 0 0 0 0 0 0 -1 0 0 0 0 0 0 0 0 0 0 0 0 0 0 0 0 0 -1 0 0
0 0 0 0 0 0 0 0 0 0 -2 0 0 0 0 0 0 0 0 0 0 0 0 0 0 0 0 0 0 0 0 0 0 0 0 0 0 0 0 0 0 0 0
0 0 0 0 -1 0 0 0 0 0 0 0 -1 -1 0 0 0 -1 -1 0 0 0 -1 0 0 0 0 0 0 0 0 0 0 0 0 0 0 0 0 0 0 0 0
0 0 0 0 0 0 0 0 0 0 0 -1 0 0 -1 0 -2 -1 -1 -1 0 -1 -1 -1 -1 -1 -1 -1 0 0 -1 -1 0 0 0 0 0 0 0 0 0 0 0
0 0 0 0 0 0 0 0 0 0 0 0 0 0 0 0 0 0 0 0 0 0 0 0 -1 -1 -1 -1 0 0 0 -1 0 -1 0 0 0 0 0 0 0 0 0
0 0 0 0 0 0 0 0 0 0 0 0 0 -1 0 0 0 0 0 0 0 0 0 0 0 0 0 0 -1 -1 0 -1 -1 -1 0 -1 -1 0 0 0 0 0 0
0 0 0 0 0 0 0 0 0 0 0 0 0 0 -2 -1 0 0 0 0 0 0 0 0 0 0 0 0 0 -1 -1 -1 -2 -2 -1 -1 -1 -1 0 0 0 0 0
0 0 0 0 0 0 0 0 0 0 0 0 0 0 -1 0 0 0 0 0 0 0 0 0 0 0 -1 -1 -1 0 0 -1 0 0 -1 -1 -1 -1 -1 0 0 0 0
0 0 0 0 0 0 0 0 0 0 0 0 0 0 0 -1 -1 -1 0 0 0 0 0 0 0 0 0 0 0 0 0 0 0 0 0 -1 -2 -1 -1 -1 0 0 0
0 0 0 0 0 0 0 0 0 0 0 0 0 0 -1 -1 -1 0 0 0 0 0 0 0 0 0 -1 -1 0 0 0 0 0 0 -1 -1 -1 -2 -1 0 -1 -1 0
0 0 0 0 0 0 0 0 0 0 0 0 0 -1 -1 -1 -1 0 0 0 0 0 -1 0 -1 -1 0 0 0 -1 0 0 0 0 0 -1 -1 -1 -2 -1 -1 -1 -1
Wind_Speed
27 30 31 33 29 28 28 28 26 27 28 31 33 33 32 31 30 30 29 28 28 28 29 31 32 34 34 33 33 35 37 39 45 44 42 42 44 44 45 43 41 42 42
29 30 31 31 30 29 28 28 28 27 28 31 32 33 31 31 30 29 28 27 27 27 28 30 32 33 32 32 34 36 37 36 40 46 43 44 44 42 42 46 45 43 43
29 31 31 30 30 30 27 27 28 27 27 30 32 30 31 30 28 25 25 26 25 27 30 32 33 31 31 30 31 32 34 36 38 40 43 40 42 42 42 42 43 43 42
31 32 32 31 31 30 28 26 28 28 28 32 31 29 28 27 26 26 26 26 26 28 28 28 27 28 27 27 27 29 32 34 36 39 40 39 40 40 40 42 43 42 41
31 31 32 33 32 33 33 29 29 28 27 28 28 27 26 24 25 25 23 25 29 27 26 24 22 21 22 24 25 28 30 30 29 34 38 39 37 39 39 38 41 41 43
29 30 32 32 32 32 31 33 32 31 23 24 24 24 24 23 22 23 23 22 23 23 17 12 9 9 9 12 15 15 23 29 36 40 38 39 38 38 37 38 38 38 43
28 29 31 33 32 33 33 35 33 29 26 23 20 21 20 20 24 23 22 20 17 10 8 7 5 3 3 6 8 9 11 12 14 31 42 39 37 37 36 36 37 37 39
27 29 31 32 30 31 35 35 33 28 26 24 22 19 18 20 18 17 18 18 14 11 11 8 8 7 5 2 1 5 8 11 11 13 22 42 40 36 37 36 35 37 39
24 25 13 21 31 33 35 34 32 28 28 27 23 20 20 19 15 15 18 16 13 13 9 9 9 10 10 6 3 2 6 10 13 18 23 34 40 42 40 34 35 34 37
6 7 8 19 15 30 31 34 32 31 30 24 22 17 17 17 12 13 14 15 12 11 9 6 7 6 6 5 5 3 6 8 8 14 17 25 33 40 43 44 40 36 34
13 9 4 5 7 9 11 12 12 14 15 17 17 15 13 14 14 11 11 14 12 6 8 8 4 5 3 5 4 6 8 8 7 11 18 24 29 33 38 42 42 39 38
4 6 8 10 9 9 9 10 13 15 18 20 22 22 20 17 17 14 11 12 11 11 4 4 4 3 3 5 6 6 11 10 7 7 12 19 25 30 35 38 41 42 41
7 8 11 12 12 12 12 14 18 19 21 23 23 22 22 23 19 17 16 14 12 12 12 6 4 5 5 5 6 8 7 11 17 16 13 17 21 26 31 33 37 38 39
10 10 10 9 9 12 16 21 21 22 21 22 23 22 22 23 24 24 22 19 16 14 11 11 11 7 16 14 13 11 9 6 9 12 12 15 19 27 29 32 34 36 35
13 12 12 15 17 14 20 21 22 24 25 23 23 23 24 25 25 24 23 24 22 18 15 16 15 12 9 17 26 23 21 19 18 10 6 6 7 12 18 27 26 26 26
21 20 20 22 15 16 18 19 26 26 26 27 28 28 26 26 26 26 23 21 25 24 25 25 23 20 17 12 6 19 26 25 22 20 17 14 10 8 6 9 11 12 13
24 23 22 20 18 19 22 19 17 22 25 26 26 29 31 26 29 31 32 27 32 32 32 29 29 29 26 22 16 10 7 26 27 24 22 20 19 16 14 13 13 13 14
21 23 22 21 21 21 22 21 23 24 25 27 29 31 33 30 32 34 36 33 35 36 35 34 33 32 31 32 28 27 28 23 25 27 26 24 23 22 21 20 19 20 19
23 22 21 21 21 20 20 21 22 24 27 28 29 32 34 33 33 34 36 38 37 37 35 34 34 34 34 34 35 34 34 32 30 28 27 27 26 26 26 25 24 24 24
21 22 20 20 22 23 24 25 26 28 28 29 31 33 34 34 36 37 37 38 38 37 36 35 35 34 34 35 36 35 35 34 32 30 29 28 27 28 28 28 28 28 28
19 20 20 21 23 24 25 26 25 27 28 29 29 30 32 32 34 36 36 38 37 37 37 37 35 35 35 35 36 36 35 35 34 33 32 31 30 30 29 28 30 31 31
18 19 19 20 21 23 24 25 26 28 28 28 29 31 32 33 34 35 35 36 36 36 37 37 36 36 35 37 38 37 37 36 35 35 34 33 32 32 30 30 30 30 31
18 18 19 20 21 22 25 27 27 28 28 29 31 32 34 34 34 35 35 36 36 36 37 37 37 38 37 38 38 38 38 37 36 37 36 35 33 32 32 32 30 30 31
17 17 18 19 21 23 25 27 28 29 30 31 33 33 35 35 35 36 36 35 35 36 37 36 36 37 38 39 39 38 37 38 38 37 36 35 33 33 32 32 31 30 30
18 18 19 20 22 24 26 27 29 30 31 33 34 35 35 36 37 37 37 36 36 37 37 36 35 35 35 37 36 37 39 39 37 36 35 34 33 32 31 31 31 31 30
19 19 20 21 21 25 27 29 31 32 33 33 34 35 36 37 37 38 37 37 37 35 32 31 28 27 26 25 27 33 39 37 36 35 33 32 31 30 30 31 31 31 31
Wind_Direction
348 344 345 344 347 347 346 344 347 345 346 345 345 347 346 347 346 344 341 338 332 328 324 320 315 311 307 303 299 296 292 289 285 283 281 280 275 274 271 269 271 269 266
344 345 345 344 345 344 345 347 347 347 347 345 348 348 349 348 348 347 344 343 338 333 328 323 319 316 309 304 300 297 294 291 287 283 281 278 275 274 271 269 267 266 263
345 344 342 342 343 344 347 348 349 350 351 350 349 351 352 353 353 353 351 345 340 334 328 324 321 319 313 308 304 300 296 293 288 285 282 279 275 272 271 268 266 264 261
343 341 340 341 342 343 343 347 347 349 350 350 353 357 360 1 3 2 359 352 343 335 331 328 324 320 317 312 307 301 298 296 292 285 281 279 274 272 270 267 263 261 259
342 343 342 339 338 334 333 344 344 349 353 357 1 5 9 12 13 10 6 358 348 343 339 335 331 326 320 315 310 306 302 299 296 288 277 276 274 269 266 266 263 260 257
349 347 347 340 346 340 345 332 341 347 2 6 11 14 16 20 18 15 11 4 360 356 350 337 327 314 314 316 315 307 309 301 289 280 277 271 269 266 265 263 263 259 254
352 347 346 346 335 345 332 338 346 354 2 16 23 24 24 24 19 16 15 12 14 6 360 355 349 334 260 231 236 242 237 233 232 285 269 269 268 264 263 261 259 259 254
352 346 348 348 338 340 346 350 350 1 7 17 21 28 29 26 25 21 18 23 23 25 32 38 43 48 63 92 231 229 229 227 223 217 218 252 260 264 260 259 259 257 253
19 326 301 318 352 3 358 8 9 9 11 13 23 28 30 30 30 24 23 27 31 33 44 54 60 63 64 67 53 263 248 241 226 219 218 229 248 249 251 256 252 252 248
111 103 77 323 65 32 33 28 32 30 24 36 35 42 37 34 33 23 23 32 28 33 43 54 70 71 60 55 34 341 313 273 242 224 214 213 216 224 233 237 242 245 245
308 305 103 91 84 78 72 70 65 65 65 62 58 56 50 43 37 24 15 33 33 19 47 52 67 64 16 16 360 341 334 320 263 224 212 206 205 205 211 219 227 234 234
129 110 97 88 84 81 74 70 67 62 62 60 55 53 49 46 42 34 28 29 33 45 25 45 46 2 6 10 8 357 333 359 50 129 163 177 186 191 198 204 213 218 224
110 101 93 86 83 81 77 69 64 61 59 54 52 49 47 46 43 38 40 36 39 48 53 54 303 300 322 329 340 331 5 37 61 75 110 128 157 172 180 185 195 207 215
100 94 89 88 82 79 74 65 63 58 56 53 50 47 45 44 42 40 40 41 40 47 47 51 47 46 303 307 311 317 325 352 44 66 81 117 139 145 159 174 188 197 204
94 89 86 82 76 77 69 65 60 57 54 52 49 45 43 41 38 36 37 39 39 40 42 45 44 40 31 309 316 316 318 321 324 326 345 18 138 169 184 183 195 199 213
84 81 78 74 80 76 71 68 57 55 53 49 47 45 43 40 37 37 37 37 38 39 40 36 35 36 38 37 15 300 315 316 315 314 315 318 310 324 239 227 230 232 237
81 79 79 78 77 72 67 65 61 57 53 49 45 41 38 37 35 33 33 35 34 33 32 31 30 27 29 31 36 40 287 303 308 310 309 308 305 297 293 282 271 273 272
85 80 78 76 73 69 65 62 57 52 47 43 41 37 33 33 31 29 27 28 26 25 24 22 20 18 18 14 18 18 312 302 301 308 307 305 300 296 293 287 283 275 275
81 78 76 73 69 65 61 57 53 47 42 38 34 31 28 27 26 26 24 21 19 17 17 16 13 11 8 5 358 353 342 332 320 312 308 303 299 296 289 288 286 280 279
79 73 72 67 62 57 53 49 44 40 36 33 27 24 22 22 20 19 18 16 14 14 12 10 8 6 4 358 352 349 344 334 328 316 312 306 306 298 286 283 280 279 275
75 70 66 61 56 51 46 43 39 34 30 26 24 22 19 18 15 14 12 11 10 9 7 6 4 1 358 354 350 345 341 336 327 321 314 304 303 298 296 294 285 279 275
70 65 60 54 50 44 39 36 32 29 26 22 20 18 16 15 13 10 9 7 7 6 4 2 0 358 355 349 344 340 333 331 328 323 318 312 304 298 296 293 288 285 279
63 57 51 47 42 36 33 30 26 23 20 18 16 14 13 11 9 8 6 5 4 3 1 360 357 354 351 346 342 337 331 330 328 323 316 313 309 302 295 289 289 286 281
54 48 43 38 34 29 27 23 20 18 16 14 12 11 10 9 7 5 4 3 2 1 0 359 357 354 350 346 340 337 333 328 323 318 314 309 307 301 294 287 284 285 283
44 39 34 30 26 23 19 17 15 13 12 11 10 9 8 7 6 4 4 3 2 1 0 1 0 358 356 351 347 342 333 327 323 318 312 306 302 299 294 287 284 281 281
35 31 27 23 20 17 14 12 10 9 9 8 8 8 7 6 6 5 5 4 4 4 5 6 5 5 5 6 4 352 319 315 312 309 304 300 297 297 295 288 283 279 276